time_stamp(utc),avg(mph),gust(mph),direction(deg),12m_air_temp(f),sonic_u(cm/s),sonic_v(cm/s),sonic_w(cm/s),pressure,2m_air_temp(f),pyranometer(W/m^2)
"2022-02-28 00:04:57+00",10.8,12.8,,43.5,-466,-250,5,1012.35,40.6,0
"2022-02-28 00:09:57+00",10.7,11.7,,43.3,-457,-258,3,1012.34,40.5,0
"2022-02-28 00:14:57+00",11.6,12.6,,,-496,-250,9,1012.3,40.4,0
"2022-02-28 00:19:57+00",11.3,13.3,,,-487,-254,6,1012.35,40.4,0
"2022-02-28 00:24:57+00",11.1,12.1,,,-479,-270,9,1012.34,40.4,0
"2022-02-28 00:29:57+00",10.3,12.3,,,-414,-271,9,1012.29,40.3,0
"2022-02-28 00:34:57+00",10.4,11.4,,,-374,-279,4,1012.32,40.1,0
"2022-02-28 00:39:57+00",10.7,12.7,,42.3,-435,-281,8,1012.45,39.9,0
"2022-02-28 00:44:57+00",9.9,9.9,,42.1,-435,-248,6,1012.38,39.8,0
"2022-02-28 00:49:57+00",11.3,12.3,,,-455,-210,9,1012.43,39.6,0
"2022-02-28 00:54:57+00",11.0,13.0,,41.6,-457,-283,12,1012.5,39.4,0
"2022-02-28 00:59:57+00",11.1,12.1,,41.8,-466,-289,16,1012.45,39.3,0
"2022-02-28 01:04:57+00",11.5,12.5,,41.5,-498,-273,8,1012.46,39.2,0
"2022-02-28 01:09:57+00",11.8,12.8,,41.5,-510,-266,13,1012.46,39.2,0
"2022-02-28 01:14:57+00",11.3,12.3,,41,-454,-149,5,1012.49,39.1,0
"2022-02-28 01:19:57+00",11.6,12.6,,41.4,-459,-193,4,1012.52,38.9,0
"2022-02-28 01:24:57+00",11.3,12.3,,,-451,-190,4,1012.54,38.8,0
"2022-02-28 01:29:57+00",11.7,12.7,,,-469,-188,5,1012.6,38.5,0
"2022-02-28 01:34:57+00",11.6,12.6,,41.5,-476,-150,3,1012.56,38.3,0
"2022-02-28 01:39:57+00",12.9,14.9,,,-526,-190,4,1012.62,38.3,0
"2022-02-28 01:44:57+00",13.2,14.2,,,-530,-183,10,1012.76,38.4,0
"2022-02-28 01:49:57+00",12.5,13.5,,41.9,-513,-172,12,1012.71,38.6,0
"2022-02-28 01:54:57+00",13.5,14.5,,,-540,-199,16,1012.87,38.7,0
"2022-02-28 01:59:57+00",12.6,14.6,,,-527,-154,5,1012.82,38.8,0
"2022-02-28 02:04:57+00",12.3,13.3,,,-504,-163,11,1012.85,38.8,0
"2022-02-28 02:09:57+00",12.8,14.8,,,-537,-151,9,1012.94,38.7,0
"2022-02-28 02:14:57+00",12.5,13.5,,41.4,-521,-162,7,1013.05,38.7,0
"2022-02-28 02:19:57+00",13.0,15.0,,41.2,-529,-172,15,1013.03,38.7,0
"2022-02-28 02:24:57+00",13.8,15.8,,41.4,-573,-171,16,1013.06,38.7,0
"2022-02-28 02:29:57+00",14.8,15.8,,41.7,-617,-180,10,1013.07,38.8,0
"2022-02-28 02:34:57+00",13.4,14.4,,41.6,-565,-142,18,1013.06,38.9,0
"2022-02-28 02:39:57+00",13.2,14.2,,,-550,-132,12,1013.14,39,0
"2022-02-28 02:44:57+00",13.6,14.6,,,-568,-146,18,1013.25,39.1,0
"2022-02-28 02:49:57+00",12.5,13.5,,41.3,-541,-96,11,1013.29,39,0
"2022-02-28 02:54:57+00",11.6,12.6,,41.2,-510,-60,12,1013.44,39,0
"2022-02-28 02:59:57+00",12.3,14.3,,41.2,-549,-9,15,1013.61,38.9,0
"2022-02-28 03:04:57+00",12.0,13.0,,,-533,95,20,1013.69,39,0
"2022-02-28 03:09:57+00",11.9,13.9,,,-525,126,31,1013.7,39,0
"2022-02-28 03:14:57+00",13.6,14.6,,41.7,-554,293,41,1013.83,39.3,0
"2022-02-28 03:19:57+00",11.2,12.2,,41.5,-356,360,30,1013.92,39.6,0
"2022-02-28 03:24:57+00",11.2,12.2,,39.6,-345,355,15,1014.09,38.1,0
"2022-02-28 03:29:57+00",11.1,12.1,,39,-376,320,18,1014.2,37,0
"2022-02-28 03:34:57+00",9.5,10.5,,39.2,-351,253,18,1014.18,37,0
"2022-02-28 03:39:57+00",12.6,13.6,,,-397,405,29,1014.16,37.5,0
"2022-02-28 03:44:57+00",14.9,16.9,,40.5,-426,486,34,1014.27,38.5,0
"2022-02-28 03:49:57+00",14.8,15.8,,40.2,-457,479,37,1014.29,38.5,0
"2022-02-28 03:54:57+00",14.5,17.5,,,-443,459,29,1014.42,38.4,0
"2022-02-28 03:59:57+00",14.4,16.4,,40.3,-497,417,49,1014.4,38.7,0
"2022-02-28 04:04:57+00",14.3,16.3,,40.4,-500,433,46,1014.37,38.9,0
"2022-02-28 04:09:57+00",13.3,15.3,,,-417,428,37,1014.45,39,0
"2022-02-28 04:14:57+00",14.5,16.5,,40.1,-458,467,22,1014.51,38.6,0
"2022-02-28 04:19:57+00",13.5,14.5,,39.8,-396,450,27,1014.63,38.3,0
"2022-02-28 04:24:57+00",13.1,14.1,,,-377,445,25,1014.76,37.9,0
"2022-02-28 04:29:57+00",16.7,22.7,,,-448,613,29,1014.74,37.7,0
"2022-02-28 04:34:57+00",15.5,19.5,,40.1,-443,533,31,1014.84,38.5,0
"2022-02-28 04:39:57+00",15.1,17.1,,39.6,-376,561,28,1014.98,38.2,0
"2022-02-28 04:44:57+00",12.3,13.3,,39.3,-286,466,23,1015.04,37.7,0
"2022-02-28 04:49:57+00",11.0,12.0,,,-250,428,24,1015.01,37.3,0
"2022-02-28 04:54:57+00",10.9,13.9,,39,-248,428,25,1015.21,37.1,0
"2022-02-28 04:59:57+00",11.5,12.5,,38.9,-297,419,27,1015.27,37,0
"2022-02-28 05:04:57+00",11.7,12.7,,,-342,403,28,1015.32,36.9,0
"2022-02-28 05:09:57+00",14.2,17.2,,39.1,-363,516,22,1015.36,37.1,0
"2022-02-28 05:14:57+00",15.9,19.9,,,-452,537,43,1015.43,37.6,0
"2022-02-28 05:19:57+00",16.1,18.1,,39.1,-472,536,39,1015.37,37.7,0
"2022-02-28 05:24:57+00",14.6,16.6,,38.8,-418,504,27,1015.47,37.4,0
"2022-02-28 05:29:57+00",12.7,13.7,,38.5,-355,439,23,1015.52,37.1,0
"2022-02-28 05:34:57+00",12.0,14.0,,,-289,453,21,1015.54,36.4,0
"2022-02-28 05:39:57+00",16.4,19.4,,,-452,584,44,1015.58,36.7,0
"2022-02-28 05:44:57+00",16.6,18.6,,38.3,-458,584,32,1015.74,36.8,0
"2022-02-28 05:49:57+00",17.1,19.1,,,-409,645,41,1015.82,37,0
"2022-02-28 05:54:57+00",22.3,24.3,,,-661,761,50,1015.83,37.2,0
"2022-02-28 05:59:57+00",18.9,20.9,,38.1,-510,684,36,1016.09,36.9,0
"2022-02-28 06:04:57+00",20.9,23.9,,38,-592,739,46,1016.05,36.8,0
"2022-02-28 06:09:57+00",19.7,22.7,,,-584,697,55,1016.15,36.6,0
"2022-02-28 06:14:57+00",18.2,20.2,,37.6,-464,656,41,1016.24,36.4,0
"2022-02-28 06:19:57+00",17.0,21.0,,37.4,-442,637,32,1016.3,36.2,0
"2022-02-28 06:24:57+00",18.2,20.2,,,-408,696,21,1016.36,35.9,0
"2022-02-28 06:29:57+00",14.9,17.9,,,-310,592,40,1016.41,35.8,0
"2022-02-28 06:34:57+00",17.3,19.3,,,-411,641,51,1016.54,35.6,0
"2022-02-28 06:39:57+00",16.9,19.9,,36.7,-408,626,49,1016.63,35.5,0
"2022-02-28 06:44:57+00",21.9,26.9,,36.9,-522,819,15,1016.64,35.6,0
"2022-02-28 06:49:57+00",16.5,19.5,,36.7,-412,600,39,1016.74,35.5,0
"2022-02-28 06:54:57+00",18.6,20.6,,,-451,687,37,1016.76,35.6,0
"2022-02-28 06:59:57+00",19.9,22.9,,36.7,-501,761,45,1016.83,35.4,0
"2022-02-28 07:04:57+00",22.0,24.0,,36.7,-570,800,45,1016.8,35.5,0
"2022-02-28 07:09:57+00",19.9,21.9,,,-539,703,48,1016.9,35.4,0
"2022-02-28 07:14:57+00",17.0,20.0,,36.4,-461,613,29,1016.93,35.2,0
"2022-02-28 07:19:57+00",17.5,19.5,,36,-482,616,46,1017.08,34.8,0
"2022-02-28 07:24:57+00",18.0,19.0,,,-460,656,29,1017.26,34.9,0
"2022-02-28 07:29:57+00",15.0,17.0,,35.7,-381,556,25,1017.05,34.5,0
"2022-02-28 07:34:57+00",15.2,17.2,,35.6,-382,566,37,1017.15,34.2,0
"2022-02-28 07:39:57+00",14.4,16.4,,35.4,-373,529,32,1017.11,34,0
"2022-02-28 07:44:57+00",15.7,18.7,,35.3,-376,622,23,1017.18,34,0
"2022-02-28 07:49:57+00",15.2,17.2,,,-422,526,27,1017.46,34,0
"2022-02-28 07:54:57+00",13.5,14.5,,,-377,471,27,1017.5,33.8,0
"2022-02-28 07:59:57+00",13.0,15.0,,34.9,-362,446,22,1017.62,33.4,0
"2022-02-28 08:04:57+00",13.1,14.1,,,-349,461,25,1017.77,33.2,0
"2022-02-28 08:09:57+00",12.5,13.5,,34.5,-322,448,22,1017.75,32.9,0
"2022-02-28 08:14:57+00",12.3,14.3,,,-338,423,28,1017.76,32.8,0
"2022-02-28 08:19:57+00",13.4,14.4,,,-362,476,23,1017.74,32.8,0
"2022-02-28 08:24:57+00",12.8,14.8,,34.2,-325,457,22,1017.74,32.7,0
"2022-02-28 08:29:57+00",14.9,17.9,,,-340,550,23,1017.89,32.8,0
"2022-02-28 08:34:57+00",12.8,14.8,,34.2,-304,485,13,1017.87,32.7,0
"2022-02-28 08:39:57+00",12.6,13.6,,33.9,-242,498,16,1017.88,32.6,0
"2022-02-28 08:44:57+00",10.9,11.9,,,-246,405,22,1018.01,32.1,0
"2022-02-28 08:49:57+00",11.2,13.2,,33.4,-213,443,15,1018.12,31.7,0
"2022-02-28 08:54:57+00",11.2,12.2,,33.3,-184,462,13,1018.38,31.5,0
"2022-02-28 08:59:57+00",10.3,11.3,,,-142,438,7,1018.35,31.2,0
"2022-02-28 09:04:57+00",10.8,11.8,,32.9,-151,451,11,1018.46,30.9,0
"2022-02-28 09:09:57+00",10.5,11.5,,32.9,-167,441,7,1018.48,30.7,0
"2022-02-28 09:14:57+00",10.8,11.8,,,-196,438,15,1018.67,30.6,0
"2022-02-28 09:19:57+00",11.3,12.3,,32.9,-212,461,12,1018.87,30.8,0
"2022-02-28 09:24:57+00",11.2,12.2,,32.9,-212,449,20,1018.82,31.1,0
"2022-02-28 09:29:57+00",11.9,12.9,,,-215,484,15,1018.84,31,0
"2022-02-28 09:34:57+00",10.7,11.7,,,-169,437,13,1018.95,31,0
"2022-02-28 09:39:57+00",11.1,12.1,,,-180,456,13,1019.13,30.7,0
"2022-02-28 09:44:57+00",11.2,13.2,,32.3,-236,438,17,1019.29,30.5,0
"2022-02-28 09:49:57+00",12.1,14.1,,32.4,-231,490,23,1019.39,30.6,0
"2022-02-28 09:54:57+00",11.5,13.5,,,-190,466,14,1019.5,30.6,0
"2022-02-28 09:59:57+00",12.9,14.9,,32,-169,554,1,1019.53,30.5,0
"2022-02-28 10:04:57+00",15.2,17.2,,31.9,-186,654,11,1019.59,30.4,0
"2022-02-28 10:09:57+00",14.4,15.4,,,-162,614,7,1019.68,30.3,0
"2022-02-28 10:14:57+00",13.4,14.4,,31.8,-140,574,11,1019.87,30.2,0
"2022-02-28 10:19:57+00",11.8,12.8,,31.6,-156,502,17,1019.9,30.1,0
"2022-02-28 10:24:57+00",11.6,12.6,,31.5,-134,503,4,1020.09,29.9,0
"2022-02-28 10:29:57+00",11.0,13.0,,31.3,-90,483,15,1020.13,29.7,0
"2022-02-28 10:34:57+00",11.1,14.1,,,-81,488,8,1020.19,29.5,0
"2022-02-28 10:39:57+00",10.8,11.8,,30.9,-123,468,6,1020.34,29.2,0
"2022-02-28 10:44:57+00",11.1,12.1,,30.7,-152,465,13,1020.43,28.9,0
"2022-02-28 10:49:57+00",10.5,11.5,,30.6,-148,448,10,1020.47,28.7,0
"2022-02-28 10:54:57+00",11.0,12.0,,,-154,459,11,1020.55,28.6,0
"2022-02-28 10:59:57+00",11.0,12.0,,30.4,-107,473,3,1020.65,28.4,0
"2022-02-28 11:04:57+00",10.0,11.0,,,-120,430,5,1020.69,28.2,0
"2022-02-28 11:09:57+00",9.6,10.6,,30.2,-103,413,4,1020.7,27.9,0
"2022-02-28 11:14:57+00",9.9,10.9,,,-110,422,3,1020.81,27.6,0
"2022-02-28 11:19:57+00",9.8,10.8,,30,-82,421,1,1020.95,27.4,0
"2022-02-28 11:24:57+00",9.2,10.2,,29.9,-106,393,9,1020.88,27.3,0
"2022-02-28 11:29:57+00",7.6,8.6,,29.6,-104,311,11,1021.03,27.4,0
"2022-02-28 11:34:57+00",7.5,7.5,,29.5,-92,312,3,1021.09,27.3,0
"2022-02-28 11:39:57+00",7.5,8.5,,29.4,-15,328,7,1021.22,27.1,0
"2022-02-28 11:44:57+00",7.2,9.2,,29.4,-96,304,0,1021.26,27,0
"2022-02-28 11:49:57+00",7.5,8.5,,,-122,310,10,1021.48,27,0
"2022-02-28 11:54:57+00",8.3,9.3,,29.5,-116,352,7,1021.54,27.1,0
"2022-02-28 11:59:57+00",9.6,10.6,,29.7,-52,417,8,1021.6,27.1,0
"2022-02-28 12:04:57+00",9.3,10.3,,29.7,-122,399,8,1021.61,27.6,1.2
"2022-02-28 12:09:57+00",10.6,12.6,,29.8,-155,439,13,1021.78,28.2,5.8
"2022-02-28 12:14:57+00",10.3,11.3,,,-180,417,21,1021.78,29.1,13
"2022-02-28 12:19:57+00",9.9,10.9,,30,-129,424,2,1021.97,29.7,25
"2022-02-28 12:24:57+00",9.2,10.2,,30.4,-98,392,12,1022.2,30.4,30.2
"2022-02-28 12:29:57+00",11.3,14.3,,,-143,478,18,1022.41,31.1,39.6
"2022-02-28 12:34:57+00",10.7,12.7,,31.1,-71,470,-2,1022.6,31.7,48.6
"2022-02-28 12:39:57+00",12.5,14.5,,31.1,-54,561,-4,1022.76,32.2,59.4
"2022-02-28 12:44:57+00",13.0,15.0,,31.1,-77,572,5,1022.91,32.6,70
"2022-02-28 12:49:57+00",16.8,18.8,,31.1,-108,752,9,1022.95,32.9,80.4
"2022-02-28 12:54:57+00",15.1,18.1,,31,-38,669,21,1023,33,91.1
"2022-02-28 12:59:57+00",17.7,19.7,,31,35,797,9,1023.14,33.1,101
"2022-02-28 13:04:57+00",15.0,18.0,,30.9,-17,675,15,1023.18,33,111.4
"2022-02-28 13:09:57+00",17.2,19.2,,31,48,762,2,1023.35,33.1,122
"2022-02-28 13:14:57+00",15.6,18.6,,30.9,26,684,12,1023.38,33.1,131.2
"2022-02-28 13:19:57+00",16.2,18.2,,30.8,33,712,-22,1023.42,33.1,141.3
"2022-02-28 13:24:57+00",15.2,19.2,,,33,671,0,1023.53,33.2,149.9
"2022-02-28 13:29:57+00",17.4,20.4,,31,-32,790,17,1023.56,33.6,158.3
"2022-02-28 13:34:57+00",19.1,22.1,,30.9,-14,836,3,1023.4,33.7,169.7
"2022-02-28 13:39:57+00",19.4,21.4,,31.1,-196,856,4,1023.39,33.8,176.3
"2022-02-28 13:44:57+00",18.3,20.3,,31.1,-183,797,22,1023.51,33.9,185.2
"2022-02-28 13:49:57+00",17.3,21.3,,,31,779,14,1023.48,34.1,193
"2022-02-28 13:54:57+00",12.9,16.9,,,30,573,21,1023.55,34.6,203.1
"2022-02-28 13:59:57+00",14.5,17.5,,,-59,640,35,1023.62,34.7,200.9
"2022-02-28 14:04:57+00",15.1,18.1,,32,-55,665,42,1023.64,34.9,216.7
"2022-02-28 14:09:57+00",17.6,19.6,,31.4,-97,772,8,1023.55,34.7,225.9
"2022-02-28 14:14:57+00",14.8,18.8,,31.8,-53,647,26,1023.52,34.8,229.2
"2022-02-28 14:19:57+00",17.0,20.0,,31.6,-29,746,8,1023.57,35,224.2
"2022-02-28 14:24:57+00",19.6,21.6,,31.8,96,857,-12,1023.6,35.3,246.1
"2022-02-28 14:29:57+00",15.1,20.1,,,-145,660,43,1023.69,35.7,253.8
"2022-02-28 14:34:57+00",18.2,21.2,,,-287,786,42,1023.7,35.3,259
"2022-02-28 14:39:57+00",20.1,24.1,,32.6,-151,886,31,1023.54,35.6,268.3
"2022-02-28 14:44:57+00",21.7,24.7,,32.7,-194,963,11,1023.49,35.6,275.1
"2022-02-28 14:49:57+00",26.0,30.0,,32.4,-252,1140,16,1023.44,35.2,283.6
"2022-02-28 14:54:57+00",23.2,28.2,,32.6,-178,1022,15,1023.49,35.1,288.6
"2022-02-28 14:59:57+00",19.7,22.7,,32.9,-201,871,1,1023.7,35.4,296.2
"2022-02-28 15:04:57+00",21.3,27.3,,33.2,-107,938,39,1023.71,36.1,301.5
"2022-02-28 15:09:57+00",24.7,29.7,,,-191,1092,19,1023.76,36.3,308.9
"2022-02-28 15:14:57+00",22.8,25.8,,33.1,-445,897,51,1023.58,35.9,317.3
"2022-02-28 15:19:57+00",25.0,27.0,,33.5,-260,1104,11,1023.46,35.9,324
"2022-02-28 15:24:57+00",20.0,23.0,,33.9,-135,886,20,1023.68,36.2,331.1
"2022-02-28 15:29:57+00",23.3,27.3,,,-257,1002,46,1023.73,36.3,333.3
"2022-02-28 15:34:57+00",19.8,21.8,,,-121,861,34,1023.87,36.4,341
"2022-02-28 15:39:57+00",21.2,23.2,,34.2,65,925,-1,1023.81,37.3,344.6
"2022-02-28 15:44:57+00",18.4,21.4,,34.4,-182,826,10,1023.99,37.7,350.3
"2022-02-28 15:49:57+00",17.2,21.2,,34.4,-260,688,32,1024.05,37.6,302.5
"2022-02-28 15:54:57+00",17.6,22.6,,34.6,4,780,31,1024.26,37.5,362.4
"2022-02-28 15:59:57+00",23.9,25.9,,34.4,-400,989,31,1024.41,37.5,363.2
"2022-02-28 16:04:57+00",19.7,22.7,,,-201,866,13,1024.53,37.3,375
"2022-02-28 16:09:57+00",17.2,22.2,,34.7,-96,779,47,1024.38,37.7,378.9
"2022-02-28 16:14:57+00",16.5,18.5,,34.6,1,745,19,1024.52,38.3,379.5
"2022-02-28 16:19:57+00",15.1,19.1,,34.9,-334,573,59,1024.6,37.9,383.3
"2022-02-28 16:24:57+00",17.4,20.4,,,-112,767,22,1024.79,37.9,387.9
"2022-02-28 16:29:57+00",19.8,22.8,,,-346,806,16,1024.73,37.9,391.7
"2022-02-28 16:34:57+00",7.6,10.6,,34.4,-209,268,26,1024.66,37.8,392.6
"2022-02-28 16:39:57+00",11.0,14.0,,35,-82,480,48,1024.67,38.1,394.2
"2022-02-28 16:44:57+00",12.7,14.7,,35.2,74,537,7,1024.62,39.1,395.1
"2022-02-28 16:49:57+00",17.0,19.0,,35.3,-137,734,-11,1024.72,39.5,396.4
"2022-02-28 16:54:57+00",12.9,15.9,,,167,492,3,1024.62,39.6,398.8
"2022-02-28 16:59:57+00",16.4,18.4,,,-124,719,18,1024.48,39.8,398.5
"2022-02-28 17:04:57+00",12.9,14.9,,35.3,-219,529,18,1024.61,39.6,399.8
"2022-02-28 17:09:57+00",12.7,15.7,,35.5,-110,557,14,1024.59,39.2,397.8
"2022-02-28 17:14:57+00",14.9,17.9,,36.4,-53,659,27,1024.64,39.9,397.4
"2022-02-28 17:19:57+00",13.9,15.9,,35.6,-339,520,43,1024.7,39.1,401.6
"2022-02-28 17:24:57+00",16.4,19.4,,35.8,-195,705,6,1024.52,39,399.9
"2022-02-28 17:29:57+00",14.9,16.9,,,-27,662,5,1024.45,39.7,398.3
"2022-02-28 17:34:57+00",12.2,14.2,,,-144,516,0,1024.4,39.9,397.5
"2022-02-28 17:39:57+00",7.6,8.6,,35.9,10,334,10,1024.39,40.2,392.9
"2022-02-28 17:44:57+00",10.5,12.5,,36.1,58,450,-14,1024.45,40.6,388.4
"2022-02-28 17:49:57+00",10.3,12.3,,35.9,-52,459,18,1024.47,40.6,383.8
"2022-02-28 17:54:57+00",8.7,10.7,,,-195,315,76,1024.49,40.7,382.3
"2022-02-28 17:59:57+00",9.5,10.5,,36.4,-164,381,-14,1024.39,40.3,381.9
"2022-02-28 18:04:57+00",13.9,16.9,,36.4,-301,531,-6,1024.35,39.8,381.5
"2022-02-28 18:09:57+00",7.3,10.3,,36.3,25,284,21,1024.39,40,373.2
"2022-02-28 18:14:57+00",10.0,12.0,,36.3,-125,400,11,1024.36,40.5,367.9
"2022-02-28 18:19:57+00",7.8,8.8,,,-192,284,-1,1024.42,40.1,366.5
"2022-02-28 18:24:57+00",12.5,14.5,,36.9,-22,554,-2,1024.39,41,360.4
"2022-02-28 18:29:57+00",8.0,9.0,,,-120,326,-2,1024.45,40.3,356.1
"2022-02-28 18:34:57+00",3.2,5.2,,,-3,118,-13,1024.49,40.3,353.4
"2022-02-28 18:39:57+00",12.4,13.4,,37.1,-250,492,10,1024.46,40.9,347.8
"2022-02-28 18:44:57+00",7.0,9.0,,,-65,304,2,1024.48,41,344.1
"2022-02-28 18:49:57+00",6.7,9.7,,37.3,-227,205,28,1024.36,40.9,340.8
"2022-02-28 18:54:57+00",7.7,10.7,,,-325,125,46,1024.36,40.9,331.6
"2022-02-28 18:59:57+00",8.3,10.3,,37.2,-101,339,7,1024.45,40.9,327.5
"2022-02-28 19:04:57+00",6.7,10.7,,,-328,15,16,1024.33,41.3,319.3
"2022-02-28 19:09:57+00",8.0,11.0,,37.7,-293,197,33,1024.43,41.1,315.8
"2022-02-28 19:14:57+00",3.2,5.2,,37.6,-135,-40,-10,1024.38,41.5,305.8
"2022-02-28 19:19:57+00",12.7,17.7,,,-136,446,82,1024.26,41.4,300.9
"2022-02-28 19:24:57+00",5.8,7.8,,,128,186,43,1024.38,42.4,296.5
"2022-02-28 19:29:57+00",5.8,8.8,,37.8,188,154,-16,1024.33,43,288
"2022-02-28 19:34:57+00",3.6,4.6,,38.5,64,81,49,1024.27,43.3,280.9
"2022-02-28 19:39:57+00",3.9,5.9,,38.6,-153,-36,19,1024.38,43.3,276.5
"2022-02-28 19:44:57+00",8.1,9.1,,,-62,348,-1,1024.36,42.5,271.7
"2022-02-28 19:49:57+00",4.1,5.1,,38.3,-80,139,15,1024.38,41.9,266
"2022-02-28 19:54:57+00",5.9,6.9,,38.3,-188,132,-14,1024.38,41.8,258.2
"2022-02-28 19:59:57+00",5.3,6.3,,,-148,145,38,1024.52,41.8,253.3
"2022-02-28 20:04:57+00",1.7,3.7,,38.9,8,15,39,1024.46,42.7,242.1
"2022-02-28 20:09:57+00",8.9,9.9,,37.9,304,-240,4,1024.43,41.9,236.7
"2022-02-28 20:14:57+00",12.1,13.1,,36.5,530,-125,36,1024.32,40.9,230.4
"2022-02-28 20:19:57+00",11.2,12.2,,36.3,463,-198,0,1024.51,40.2,220
"2022-02-28 20:24:57+00",10.9,14.9,,36.4,495,-52,48,1024.46,40.4,213.8
"2022-02-28 20:29:57+00",10.8,12.8,,36.3,472,-128,65,1024.51,40.2,202.6
"2022-02-28 20:34:57+00",13.6,15.6,,35.8,589,-151,13,1024.54,39.2,199
"2022-02-28 20:39:57+00",12.2,13.2,,35.6,514,-162,-2,1024.7,38.7,191.7
"2022-02-28 20:44:57+00",13.6,14.6,,35.5,578,-209,0,1024.66,38.6,183.1
"2022-02-28 20:49:57+00",9.5,13.5,,35.5,425,-101,29,1024.77,38.4,176.4
"2022-02-28 20:54:57+00",12.6,13.6,,35.5,571,-13,16,1024.69,38.3,168.7
"2022-02-28 20:59:57+00",12.0,13.0,,35.4,529,-115,7,1024.67,38.3,158.4
"2022-02-28 21:04:57+00",13.4,15.4,,35.3,584,-133,17,1024.7,38.1,149.5
"2022-02-28 21:09:57+00",12.4,14.4,,35.3,531,-108,62,1024.67,37.9,139.1
"2022-02-28 21:14:57+00",13.3,15.3,,35.4,594,-76,29,1024.73,37.8,129.8
"2022-02-28 21:19:57+00",13.9,16.9,,35.2,632,-86,20,1024.73,37.5,120.2
"2022-02-28 21:24:57+00",14.5,16.5,,35.4,659,-108,45,1024.66,37.4,109.1
"2022-02-28 21:29:57+00",14.8,16.8,,35.3,659,-2,71,1024.64,37.3,97.5
"2022-02-28 21:34:57+00",14.4,17.4,,35.4,666,-41,46,1024.69,37.4,87.6
"2022-02-28 21:39:57+00",15.1,18.1,,35,657,-114,44,1024.75,36.7,75.2
"2022-02-28 21:44:57+00",15.1,16.1,,35.1,685,-38,28,1024.89,36.9,64.5
"2022-02-28 21:49:57+00",12.5,14.5,,,558,-56,51,1024.99,36.6,54.3
"2022-02-28 21:54:57+00",11.9,12.9,,34.7,532,-84,22,1025.1,36.2,47
"2022-02-28 21:59:57+00",10.5,11.5,,34.6,453,-137,16,1025.01,35.7,34.8
"2022-02-28 22:04:57+00",10.7,11.7,,34.7,472,-100,21,1025.01,35.5,23.3
"2022-02-28 22:09:57+00",9.1,12.1,,34.7,386,-128,20,1025.1,35.5,4.1
"2022-02-28 22:14:57+00",10.0,12.0,,34.5,382,-224,24,1025.12,35.1,0
"2022-02-28 22:19:57+00",11.4,12.4,,34.4,461,-229,13,1025.15,34.7,0
"2022-02-28 22:24:57+00",10.3,12.3,,34.3,402,-238,8,1025.13,34.4,0
"2022-02-28 22:29:57+00",10.0,11.0,,34.3,375,-229,12,1025.19,34.2,0
"2022-02-28 22:34:57+00",8.3,10.3,,34.3,320,-163,9,1025.26,34,0
"2022-02-28 22:39:57+00",9.7,11.7,,34.3,394,-190,14,1025.25,33.9,0
"2022-02-28 22:44:57+00",9.2,10.2,,34.3,400,-126,5,1025.24,33.7,0
"2022-02-28 22:49:57+00",9.3,11.3,,34.1,393,-129,11,1025.08,33.5,0
"2022-02-28 22:54:57+00",7.0,8.0,,34,283,-113,5,1025.11,33.4,0
"2022-02-28 22:59:57+00",6.5,7.5,,33.9,247,-140,16,1025.14,33.1,0
"2022-02-28 23:04:57+00",6.8,7.8,,33.9,279,-110,16,1025.26,32.8,0
"2022-02-28 23:09:57+00",6.0,7.0,,34.1,229,-128,2,1025.26,32.6,0
"2022-02-28 23:14:57+00",5.7,6.7,,34.2,238,-51,12,1025.35,32.5,0
"2022-02-28 23:19:57+00",5.1,6.1,,34.2,213,-58,12,1025.38,32.4,0
"2022-02-28 23:24:57+00",4.7,4.7,,34.2,191,-70,11,1025.26,32.2,0
"2022-02-28 23:29:57+00",4.3,4.3,,34.2,158,-88,4,1025.33,32.1,0
"2022-02-28 23:34:57+00",4.5,5.5,,,182,-46,6,1025.37,31.9,0
"2022-02-28 23:39:57+00",4.5,5.5,,34.2,195,-36,13,1025.43,31.7,0
"2022-02-28 23:44:57+00",4.2,5.2,,34.2,178,-13,15,1025.37,31.5,0
"2022-02-28 23:49:57+00",5.7,5.7,,34.2,238,-66,9,1025.36,31.4,0
"2022-02-28 23:54:57+00",6.4,6.4,,34.3,278,-23,16,1025.3,31.5,0
"2022-02-28 23:59:57+00",5.6,6.6,,34.5,240,-30,12,1025.36,31.3,0
